Starlink 31307

operational
NORAD ID: 59089 Int'l Des: 2024-041 Owner: SPXS Country: US Constellation: starlink
LEOCIRCULAR

Starlink 31307について

説明を読み込み中...

リアルタイム位置

3D地球を読み込み中...

次回通過

高度履歴

Altitude vs Time

uPlot chart will show altitude changes over time

軌道要素

1 59089U 24041R 25258.25823693 .00001853 00000-0 76811-4 0 9996
2 59089 42.9991 221.2669 0001055 276.4740 83.5991 15.27584464 87495
Epoch: Sep 15, 2025 • Age: 7 hours

現在のステータス

高度 495.7 km
速度 7.62 km/s
衛星直下点 -43.16°S, 70.02°W
打ち上げ日 Feb 29, 2024
運用期間 1.5 years
タイプ internet

技術仕様

分類 Payload
質量 730.00 kg
乾燥質量 700.00 kg
総質量 730.00 kg
長さ 0.30 m
直径 4.10 m
スパン 29.00 m
形状 Box + pan
製造者 SPXS
バスタイプ Starlink V2M
フェーズステータス In Orbit
所有者/国 SPXS/US

大規模コンステレーション

Loading constellations...